Lake Nacimiento Weather Center

Moon Phase Calendar



Lake Nacimiento Water Level
Online Cameras

 


      

Current Conditions in Lake Nacimiento
6/18/2024 2:44:32 AM

56°F
Feels Like 53
Clear
Humidity
35%
Pressure
29.8"
Wind
3.9 mph (N)
Dew Point
29°F
UV Index
0/10 (Low)
Visibility
6 mi

Hourly Forecast

Date & Time Tue, Jun 18
2:00 AM
Tue, Jun 18
3:00 AM
Tue, Jun 18
4:00 AM
Tue, Jun 18
5:00 AM
Tue, Jun 18
6:00 AM
Tue, Jun 18
7:00 AM
Tue, Jun 18
8:00 AM
Tue, Jun 18
9:00 AM
Tue, Jun 18
10:00 AM
Tue, Jun 18
11:00 AM
Tue, Jun 18
12:00 PM
Tue, Jun 18
1:00 PM
Tue, Jun 18
2:00 PM
Tue, Jun 18
3:00 PM
Tue, Jun 18
4:00 PM
Tue, Jun 18
5:00 PM
Tue, Jun 18
6:00 PM
Tue, Jun 18
7:00 PM
Tue, Jun 18
8:00 PM
Tue, Jun 18
9:00 PM
Tue, Jun 18
10:00 PM
Tue, Jun 18
11:00 PM
Wed, Jun 19
12:00 AM
Wed, Jun 19
1:00 AM
Wed, Jun 19
2:00 AM
Wed, Jun 19
3:00 AM
Wed, Jun 19
4:00 AM
Wed, Jun 19
5:00 AM
Wed, Jun 19
6:00 AM
Wed, Jun 19
7:00 AM
Wed, Jun 19
8:00 AM
Wed, Jun 19
9:00 AM
Wed, Jun 19
10:00 AM
Wed, Jun 19
11:00 AM
Wed, Jun 19
12:00 PM
Wed, Jun 19
1:00 PM
Wed, Jun 19
2:00 PM
Wed, Jun 19
3:00 PM
Wed, Jun 19
4:00 PM
Wed, Jun 19
5:00 PM
Wed, Jun 19
6:00 PM
Wed, Jun 19
7:00 PM
Wed, Jun 19
8:00 PM
Wed, Jun 19
9:00 PM
Wed, Jun 19
10:00 PM
Wed, Jun 19
11:00 PM
Thu, Jun 20
12:00 AM
Thu, Jun 20
1:00 AM
Condition
Clear

Clear

Clear

Clear

Clear

Clear

Clouds

Clouds

Clouds

Clouds

Clouds

Clouds

Clouds

Clouds

Clouds

Clouds

Clouds

Clouds

Clouds

Clouds

Clouds

Clouds

Clouds

Clouds

Clear

Clear

Clear

Clear

Clear

Clear

Clear

Clear

Clear

Clear

Clear

Clear

Clear

Clear

Clear

Clear

Clear

Clear

Clouds

Clouds

Clouds

Clouds

Clear

Clear
Temperature 56°F56°F56°F55°F55°F58°F66°F72°F78°F83°F87°F88°F88°F87°F84°F82°F80°F74°F69°F64°F61°F59°F57°F55°F55°F54°F53°F52°F52°F57°F63°F70°F75°F80°F84°F87°F87°F86°F84°F82°F80°F77°F68°F62°F59°F57°F56°F55°F
Feels Like 53°F53°F53°F52°F52°F55°F64°F70°F77°F80°F83°F84°F84°F83°F81°F80°F79°F72°F67°F62°F59°F56°F54°F53°F52°F51°F50°F49°F49°F54°F61°F67°F73°F78°F81°F83°F83°F83°F81°F80°F79°F75°F66°F60°F57°F55°F53°F53°F
Cloudiness 0%0%0%0%2%6%14%36%40%35%15%57%72%79%83%86%93%97%97%87%71%60%13%11%10%10%9%8%0%0%1%0%0%0%0%0%0%0%0%0%0%5%22%19%16%14%6%4%
Visibility 6 mi6 mi6 mi6 mi6 mi6 mi6 mi6 mi6 mi6 mi6 mi6 mi6 mi6 mi6 mi6 mi6 mi6 mi6 mi6 mi6 mi6 mi6 mi6 mi6 mi6 mi6 mi6 mi6 mi6 mi6 mi6 mi6 mi6 mi6 mi6 mi6 mi6 mi6 mi6 mi6 mi6 mi6 mi6 mi6 mi6 mi6 mi6 mi
Precipitation 0%0%0%0%0%0%0%0%0%0%0%0%0%0%0%0%0%0%0%0%0%0%0%0%0%0%0%0%0%0%0%0%0%0%0%0%0%0%0%0%0%0%0%0%0%0%0%0%
Humidity 34%35%36%36%36%34%25%20%15%12%10%10%11%12%14%16%18%28%33%35%37%40%42%44%42%42%42%42%40%36%26%20%16%13%12%13%14%16%18%19%20%24%36%41%44%48%51%52%
Dew Point 29°F29°F30°F29°F29°F30°F29°F28°F26°F25°F24°F24°F25°F27°F28°F30°F32°F38°F38°F35°F34°F34°F34°F33°F32°F31°F30°F29°F28°F30°F28°F26°F25°F24°F25°F29°F31°F34°F35°F35°F35°F37°F39°F37°F37°F37°F37°F37°F
Pressure 29.8"29.8"29.8"29.8"29.83"29.83"29.83"29.83"29.8"29.8"29.8"29.77"29.77"29.74"29.74"29.74"29.74"29.74"29.77"29.8"29.8"29.83"29.83"29.83"29.83"29.83"29.83"29.83"29.85"29.85"29.85"29.85"29.83"29.83"29.83"29.8"29.8"29.77"29.77"29.77"29.77"29.77"29.8"29.83"29.83"29.83"29.83"29.83"
Wind Speed 3.9 mph3.9 mph3.7 mph3.6 mph3.6 mph3.4 mph2.9 mph2.3 mph2.4 mph1.9 mph1.2 mph1.2 mph3.6 mph6.4 mph7.9 mph6.9 mph5.1 mph3.4 mph3.7 mph3.8 mph3.4 mph3 mph3.6 mph3.8 mph3.8 mph3.7 mph3.5 mph3.4 mph3.2 mph3.4 mph3.3 mph3.3 mph3.3 mph3.2 mph2.5 mph1.9 mph3.9 mph5.9 mph7.4 mph6.4 mph5.4 mph4.6 mph3.4 mph2.6 mph1.4 mph0.9 mph1.2 mph2.2 mph
Wind
Direction
358°
N
359°
N
359°
N

N

N
10°
N
11°
N
20°
NNE

N

N
331°
NNW
251°
WSW
238°
WSW
237°
WSW
236°
SW
240°
WSW
266°
W
288°
WNW
318°
NW
354°
N

N
358°
N
343°
NNW
334°
NNW
355°
N
357°
N
356°
N
340°
NNW
355°
N
354°
N

N

N
350°
N
343°
NNW
340°
NNW
287°
WNW
240°
WSW
237°
WSW
241°
WSW
254°
WSW
283°
WNW
306°
NW
317°
NW
335°
NNW
334°
NNW

N
327°
NNW
342°
NNW

Daily Forecast

Date High Low Precip. Humidity
Today
Jun 18

Clouds
88 °F
55 °F
0%
10%
Wednesday
Jun 19

Clear
87 °F
52 °F
0%
13%
Thursday
Jun 20

Clear
89 °F
53 °F
0%
16%
Friday
Jun 21

Clear
97 °F
55 °F
0%
16%
Saturday
Jun 22

Clear
96 °F
64 °F
0%
19%
Sunday
Jun 23

Clear
94 °F
58 °F
0%
17%
Monday
Jun 24

Clear
89 °F
55 °F
0%
17%
Tuesday
Jun 25

Clear
96 °F
53 °F
0%
15%
Wednesday
Jun 26

Clear
90 °F
54 °F
0%
17%
Thursday
Jun 27

Clear
95 °F
51 °F
0%
14%
Friday
Jun 28

Clear
90 °F
56 °F
0%
24%
Saturday
Jun 29

Clear
81 °F
51 °F
0%
35%
Sunday
Jun 30

Clear
85 °F
49 °F
0%
28%
Monday
Jul 1

Clear
86 °F
53 °F
0%
22%
Tuesday
Jul 2

Clear
87 °F
52 °F
0%
23%
Wednesday
Jul 3

Clear
87 °F
51 °F
0%
19%

Temperature 8-14 Day Outlook



Precipitation 8-14 Day Outlook






About Us
Contact Us
Site Map
Search Site
Advertise With Us
   
Nacimiento.USLakes.info
THE LAKE NACIMIENTO WEBSITE

Copyright 2024, Lakes Online
Privacy    |    Legal